sat.trackr.live / text

‹ back to catalog

STARLINK-5474

NORAD 55665 · 2023-021AP

PAYLOAD ACTIVE UNKNOWN

§ Identity

Operator
Country
US
Launch date
2023-02-17
Launch site
AFWTR
Launch vehicle
Mass (kg)
RCS (m²)

Purposes: comms

External: N2YO · Heavens-Above · Gunter

§ Orbital elements

Epoch: 2026-05-24T22:00:18.986688Z

Period
96.11 min
Inclination
69.9993°
Eccentricity
0.0002875
Mean motion
14.98331996 rev/d
Perigee alt
570.1 km
Apogee alt
574.0 km
Semi-major
6,950.2 km
B*
4.8286e-5
RAAN
332.2196°
Arg perigee
269.2713°
Mean anomaly
90.8116°
Rev number
18,069

§ Raw data

STARLINK-54741 55665U 23021AP  26144.91688642  .00000483  00000+0  48286-4 0  99922 55665  69.9993 332.2196 0002875 269.2713  90.8116 14.98331996180694

JSON: /api/v1/satellites/55665 · /tle

For live sub-satellite position, see the globe view (requires WebGL).

§ Visibility from observer

Set your observer location to see the next 7 days of passes ≥ 10°. The values pass through the URL so the page stays shareable.

No JS? Fill the form by hand. The geolocation button needs JavaScript.